GW6199 Weather Reports


time (UTC)temp
C
wind
direction
speed
KPH
gust
KPH
rain 1hr
cm
rain 24hr
cm
rain mn
cm
humidity
%
barometer
mb
20260503200327 16 162 1.6 9.7 0.00 0.00 0.00 39 1016.1
20260503195824 16 186 1.6 9.7 0.00 0.00 0.00 42 1016.3
20260503195321 17 198 3.2 14.5 0.00 0.00 0.00 36 1016.6
20260503194818 16 110 3.2 4.8 0.00 0.00 0.00 41 1016.3
20260503194314 16 168 4.8 11.3 0.00 0.00 0.00 39 1016.5
20260503193810 16 175 4.8 9.7 0.00 0.00 0.00 39 1016.4
20260503193306 16 157 1.6 6.4 0.00 0.00 0.00 39 1016.9
20260503192802 17 126 3.2 9.7 0.00 0.00 0.00 39 1017.3
20260503192258 16 211 3.2 6.4 0.00 0.00 0.00 38 1017.1
20260503191754 16 158 4.8 6.4 0.00 0.00 0.00 41 1017.5
20260503191251 17 154 6.4 9.7 0.00 0.00 0.00 38 1017.1
20260503190748 17 220 4.8 4.8 0.00 0.00 0.00 39 1017.3
20260503190245 17 177 3.2 9.7 0.00 0.00 0.00 38 1017.7
20260503185742 16 65 3.2 12.9 0.00 0.00 0.00 37 1017.7
20260503185238 16 202 6.4 16.1 0.00 0.00 0.00 37 1017.7
20260503184732 16 199 6.4 6.4 0.00 0.00 0.00 38 1017.7
20260503184229 16 128 3.2 16.1 0.00 0.00 0.00 40 1017.8
20260503183725 16 241 3.2 9.7 0.00 0.00 0.00 41 1017.9
20260503183223 16 27 3.2 6.4 0.00 0.00 0.00 40 1018.1
20260503182721 16 182 1.6 3.2 0.00 0.00 0.00 43 1018.0
20260503182220 15 75 1.6 4.8 0.00 0.00 0.00 41 1018.0
20260503181715 15 135 9.7 14.5 0.00 0.00 0.00 39 1018.1
20260503181213 15 44 4.8 9.7 0.00 0.00 0.00 41 1018.3
20260503180709 16 197 4.8 6.4 0.00 0.00 0.00 38 1018.4
20260503180208 15 162 3.2 11.3 0.00 0.00 0.00 41 1018.5
20260503175704 16 39 4.8 16.1 0.00 0.00 0.00 39 1018.4
20260503175202 16 254 4.8 9.7 0.00 0.00 0.00 40 1018.4
20260503174657 16 185 4.8 9.7 0.00 0.00 0.00 40 1018.4
20260503174155 16 233 3.2 4.8 0.00 0.00 0.00 42 1018.7
20260503173650 15 146 3.2 12.9 0.00 0.00 0.00 40 1018.6
20260503173147 15 136 4.8 17.7 0.00 0.00 0.00 39 1018.8
20260503172644 16 205 4.8 14.5 0.00 0.00 0.00 43 1018.9
20260503172141 16 59 1.6 9.7 0.00 0.00 0.00 40 1018.6
20260503171637 15 116 4.8 9.7 0.00 0.00 0.00 42 1019.0
20260503171135 15 182 9.7 16.1 0.00 0.00 0.00 39 1019.3
20260503170632 15 145 3.2 12.9 0.00 0.00 0.00 39 1019.2
20260503170128 15 152 4.8 6.4 0.00 0.00 0.00 40 1019.4
20260503150520 13 126 3.2 3.2 0.00 0.00 0.00 51 1020.7
20260503131413 8 341 3.2 4.8 0.00 0.00 0.00 61 1020.4
20260503130910 8 199 6.4 9.7 0.00 0.00 0.00 63 1020.5
20260503130407 7 186 1.6 3.2 0.00 0.00 0.00 64 1020.5
20260503110811 1 108 0.0 0.0 0.00 0.00 0.00 89 1019.8
20260503110308 1 121 0.0 1.6 0.00 0.00 0.00 89 1019.9
20260503100234 0 92 0.0 0.0 0.00 0.00 0.00 99 1019.3
20260503090154 0 92 0.0 0.0 0.00 0.00 0.00 99 1019.5
20260503081624 0 93 0.0 0.0 0.00 0.00 0.00 99 1019.4
20260503081121 0 93 0.0 0.0 0.00 0.00 0.00 99 1019.3
20260503080617 0 93 0.0 0.0 0.00 0.00 0.00 99 1019.3
20260503080113 0 93 0.0 0.0 0.00 0.00 0.00 99 1019.4
20260503072550 0 93 0.0 0.0 0.00 0.00 0.00 98 1019.2
20260503072048 0 93 0.0 0.0 0.00 0.00 0.00 98 1019.2
20260503071544 0 93 0.0 0.0 0.00 0.00 0.00 98 1019.1
20260503071041 0 93 0.0 0.0 0.00 0.00 0.00 98 1019.1
20260503070537 0 93 0.0 0.0 0.00 0.00 0.00 97 1019.2
20260503054951 0 93 0.0 0.0 0.00 0.00 0.00 94 1019.7
20260503054447 1 93 0.0 0.0 0.00 0.00 0.00 94 1019.6
20260503053945 1 93 0.0 0.0 0.00 0.00 0.00 95 1019.6
20260503053443 1 93 0.0 0.0 0.00 0.00 0.00 95 1019.6
20260503052939 1 93 0.0 0.0 0.00 0.00 0.00 95 1019.7
20260503052437 1 93 0.0 0.0 0.00 0.00 0.00 95 1019.5
20260503051932 1 93 0.0 0.0 0.00 0.00 0.00 94 1019.6
20260503051428 1 93 0.0 0.0 0.00 0.00 0.00 94 1019.5
20260503050926 1 93 0.0 0.0 0.00 0.00 0.00 94 1019.6
20260503050421 1 93 0.0 0.0 0.00 0.00 0.00 93 1019.6
20260503045920 1 93 0.0 0.0 0.00 0.00 0.00 93 1019.7
20260503045417 1 93 0.0 0.0 0.00 0.00 0.00 92 1019.5
20260503044914 1 93 0.0 0.0 0.00 0.00 0.00 92 1019.6
20260503044410 1 93 0.0 0.0 0.00 0.00 0.00 91 1019.6
20260503043908 1 93 0.0 0.0 0.00 0.00 0.00 90 1019.8
20260503043404 1 93 0.0 0.0 0.00 0.00 0.00 90 1019.6
20260503042900 1 93 0.0 0.0 0.00 0.00 0.00 89 1019.6
20260503042357 1 93 0.0 0.0 0.00 0.00 0.00 89 1019.7
20260503041853 2 93 0.0 0.0 0.00 0.00 0.00 88 1019.7
20260503041350 2 93 0.0 0.0 0.00 0.00 0.00 87 1019.5
20260503040848 2 93 0.0 0.0 0.00 0.00 0.00 87 1019.6
20260503040346 2 93 0.0 0.0 0.00 0.00 0.00 86 1019.8
20260503035842 2 93 0.0 0.0 0.00 0.00 0.00 85 1019.7
20260503035339 2 92 0.0 0.0 0.00 0.00 0.00 84 1019.6
20260503034837 2 91 0.0 0.0 0.00 0.00 0.00 84 1019.6
20260503034334 2 91 0.0 0.0 0.00 0.00 0.00 83 1019.8
20260503033831 2 91 0.0 0.0 0.00 0.00 0.00 83 1019.8
20260503033329 2 82 0.0 0.0 0.00 0.00 0.00 81 1019.7
20260503032826 3 82 0.0 0.0 0.00 0.00 0.00 80 1019.8
20260503032325 3 82 0.0 0.0 0.00 0.00 0.00 80 1019.7
20260503031822 3 82 0.0 0.0 0.00 0.00 0.00 81 1019.7
20260503031320 2 82 0.0 0.0 0.00 0.00 0.00 81 1019.7
20260503030816 3 81 0.0 0.0 0.00 0.00 0.00 80 1019.8
20260503030313 3 81 0.0 0.0 0.00 0.00 0.00 80 1019.6
20260503025809 3 81 0.0 0.0 0.00 0.00 0.00 79 1019.7
20260503025307 3 81 0.0 0.0 0.00 0.00 0.00 77 1019.6
20260503024803 3 81 0.0 0.0 0.00 0.00 0.00 76 1019.8
20260503024300 3 81 0.0 0.0 0.00 0.00 0.00 75 1019.6
20260503023757 3 81 0.0 0.0 0.00 0.00 0.00 73 1019.7
20260503023255 4 81 0.0 0.0 0.00 0.00 0.00 72 1019.6
20260503022751 4 81 0.0 0.0 0.00 0.00 0.00 69 1019.6
20260503022250 5 81 0.0 0.0 0.00 0.00 0.00 69 1019.5
20260503021748 5 81 0.0 0.0 0.00 0.00 0.00 66 1019.6
20260503021243 5 81 0.0 0.0 0.00 0.00 0.00 65 1019.6
20260503020742 5 81 0.0 0.0 0.00 0.00 0.00 64 1019.5
20260503020239 5 81 0.0 0.0 0.00 0.00 0.00 64 1019.4
20260503015735 5 81 0.0 0.0 0.00 0.00 0.00 63 1019.4
20260503015232 6 81 0.0 0.0 0.00 0.00 0.00 62 1019.3
20260503014728 6 80 0.0 0.0 0.00 0.00 0.00 64 1019.3
20260503014226 6 80 0.0 0.0 0.00 0.00 0.00 65 1019.2
20260503013723 6 80 0.0 0.0 0.00 0.00 0.00 64 1019.1
20260503013221 6 80 0.0 0.0 0.00 0.00 0.00 64 1019.0
20260503012718 6 80 0.0 0.0 0.00 0.00 0.00 62 1019.0
20260503012215 6 79 0.0 0.0 0.00 0.00 0.00 61 1018.9
20260503011711 6 78 0.0 0.0 0.00 0.00 0.00 61 1018.9
20260503011209 7 79 0.0 0.0 0.00 0.00 0.00 60 1018.8
20260503010704 7 79 0.0 1.6 0.00 0.00 0.00 60 1018.9
20260503010202 7 71 1.6 1.6 0.00 0.00 0.00 58 1018.8
20260503005659 7 71 0.0 1.6 0.00 0.00 0.00 57 1018.8
20260503005156 7 72 0.0 1.6 0.00 0.00 0.00 57 1018.7
20260503004652 7 77 0.0 1.6 0.00 0.00 0.00 57 1018.7
20260503004151 8 73 0.0 0.0 0.00 0.00 0.00 58 1018.6
20260503003648 8 63 1.6 3.2 0.00 0.00 0.00 54 1018.7
20260503003145 8 72 0.0 1.6 0.00 0.00 0.00 54 1018.6
20260503002641 8 67 0.0 1.6 0.00 0.00 0.00 52 1018.6
20260503002138 8 37 3.2 3.2 0.00 0.00 0.00 50 1018.4
20260503001634 8 60 1.6 1.6 0.00 0.00 0.00 54 1018.1
20260503001131 8 64 3.2 3.2 0.00 0.00 0.00 51 1018.3
20260503000629 8 54 1.6 3.2 0.00 0.00 0.00 49 1018.4
20260503000126 9 77 1.6 6.4 0.00 0.00 0.00 50 1018.2
20260502235622 9 32 3.2 3.2 0.00 0.00 0.00 49 1018.2
20260502235121 9 71 1.6 3.2 0.00 0.00 0.00 54 1018.0
20260502234616 9 76 0.0 1.6 0.00 0.00 0.00 53 1018.2
20260502234114 9 48 1.6 3.2 0.00 0.00 0.00 48 1018.0
20260502233609 10 85 0.0 1.6 0.00 0.00 0.00 51 1017.9
20260502233107 10 65 1.6 4.8 0.00 0.00 0.00 51 1018.0
20260502232602 10 95 1.6 3.2 0.00 0.00 0.00 51 1018.1
20260502232100 10 54 1.6 4.8 0.00 0.00 0.00 47 1018.1
20260502231557 10 51 3.2 3.2 0.00 0.00 0.00 49 1018.1
20260502231055 10 238 3.2 9.7 0.00 0.00 0.00 46 1017.9
20260502230553 10 61 1.6 4.8 0.00 0.00 0.00 47 1018.1
20260502230051 10 31 1.6 3.2 0.00 0.00 0.00 47 1018.0
20260502225546 10 62 1.6 3.2 0.00 0.00 0.00 47 1017.8
20260502225043 10 56 0.0 3.2 0.00 0.00 0.00 45 1017.9
20260502224539 10 34 3.2 6.4 0.00 0.00 0.00 45 1017.9
20260502224037 11 30 4.8 6.4 0.00 0.00 0.00 45 1017.9
20260502223534 11 34 3.2 4.8 0.00 0.00 0.00 46 1017.7
20260502223033 11 95 0.0 1.6 0.00 0.00 0.00 48 1017.8
20260502222529 10 69 1.6 3.2 0.00 0.00 0.00 46 1017.7
20260502222026 10 52 3.2 3.2 0.00 0.00 0.00 46 1017.8
20260502221521 11 40 3.2 4.8 0.00 0.00 0.00 48 1017.7
20260502221019 11 61 1.6 4.8 0.00 0.00 0.00 45 1017.6
20260502220514 11 1 3.2 6.4 0.00 0.00 0.00 45 1017.7
20260502220011 11 64 1.6 3.2 0.00 0.00 0.00 46 1017.8
20260502215509 10 50 3.2 4.8 0.00 0.00 0.00 45 1017.7
20260502215005 10 74 0.0 4.8 0.00 0.00 0.00 46 1017.6
20260502214502 10 73 1.6 3.2 0.00 0.00 0.00 49 1017.5
20260502214000 10 30 3.2 4.8 0.00 0.00 0.00 48 1017.5
20260502213456 11 52 1.6 3.2 0.00 0.00 0.00 46 1017.5
20260502212954 11 5 6.4 9.7 0.00 0.00 0.00 43 1017.6
20260502212453 11 325 4.8 6.4 0.00 0.00 0.00 43 1017.5
20260502211950 12 43 3.2 6.4 0.00 0.00 0.00 45 1017.3
20260502211445 12 46 3.2 3.2 0.00 0.00 0.00 46 1017.3
20260502210943 12 91 1.6 4.8 0.00 0.00 0.00 42 1017.3
20260502210440 11 48 0.0 4.8 0.00 0.00 0.00 46 1017.3
20260502205937 11 15 4.8 6.4 0.00 0.00 0.00 42 1017.3
20260502205433 11 59 3.2 6.4 0.00 0.00 0.00 44 1017.6
20260502204931 12 348 3.2 6.4 0.00 0.00 0.00 43 1017.3
20260502204427 12 102 0.0 1.6 0.00 0.00 0.00 43 1017.0
20260502203925 12 51 1.6 3.2 0.00 0.00 0.00 48 1017.3
20260502203423 11 46 3.2 6.4 0.00 0.00 0.00 45 1017.5
20260502202918 11 31 1.6 4.8 0.00 0.00 0.00 47 1017.2
20260502202415 11 57 1.6 4.8 0.00 0.00 0.00 45 1017.6
20260502201914 11 7 3.2 4.8 0.00 0.00 0.00 43 1017.6
20260502201409 11 54 1.6 3.2 0.00 0.00 0.00 43 1017.7
20260502200906 12 18 6.4 6.4 0.00 0.00 0.00 41 1017.6